Flag for Switzerland Weather past 2 weeks in Wallisellen, Zurich, Switzerland

Now
51 °F

Cool.


Feels Like: 46 °F
Forecast: 42 / 53 °F
Wind: 16 mph from West

Location: Zurich Town / Ville.

Current Time: Mar 30, 2015 at 5:15:51 PM

Latest Report: Mar 30, 2015 at 4:00 PM


Visibility: N/A

Pressure: 29.87 "Hg

Humidity: 66%

Dew point: 40 °F

Location of WallisellenLocation

Historic Weather in Wallisellen — Graph

°F

Wallisellen temperature yesterday

Maximum temperature yesterday: 52 °F (at 12:00 PM)
Minimum temperature yesterday: 44 °F (at 3:00 AM)
Average temperature yesterday: 48 °F

Past Weeks' High & Low Weather Summary

 TemperatureHumidityPressure
High62 °F (Mar 18, 2:40 PM)97% (Mar 22, 1:00 AM)30.31 "Hg (Mar 22, 1:00 AM)
Low35 °F (Mar 22, 5:00 AM)34% (Mar 24, 5:00 PM)29.59 "Hg (Mar 25, 2:00 PM)
Average46 °F71%30.03 "Hg
* Reported Mar 15 2:00 PM — Mar 30 3:00 PM, Wallisellen, Weather by CustomWeather, © 2015

Note: Actual official high and low records may vary slightly from our data, if they occured in-between our weather recording intervals... More about our weather records

Advertising

Wallisellen weather history for previous 24 hours

 ConditionsComfort  
Time TempWeatherWind HumidityBarometerVisibility
3:00 PM
Mon, Mar 30
50 °FCool.24 mph72%29.86 "HgN/A
2:00 PM49 °FOvercast.16 mph80%29.84 "HgN/A
1:00 PM48 °FCool.15 mph89%29.82 "HgN/A
12:00 PM48 °FCool.17 mph92%29.79 "HgN/A
11:00 AM47 °FCool.13 mph95%29.77 "HgN/A
10:00 AM48 °FCool.22 mph88%29.73 "HgN/A
9:00 AM48 °FCool.21 mph87%29.70 "HgN/A
8:00 AM47 °FOvercast.20 mph87%29.70 "HgN/A
7:00 AM47 °FCool.22 mph88%29.70 "HgN/A
6:00 AM47 °FCool.21 mph88%29.70 "HgN/A
5:00 AM47 °FCool.23 mph87%29.69 "HgN/A
4:00 AM46 °FCool.18 mph89%29.71 "HgN/A
3:00 AM46 °FCool.15 mph89%29.72 "HgN/A
2:00 AM47 °FCool.21 mph88%29.75 "HgN/A
1:00 AM47 °FCool.20 mph89%29.76 "HgN/A
12:00 AM47 °FCool.23 mph86%29.77 "HgN/A
10:00 PM
Sun, Mar 29
47 °FCool.22 mph86%29.81 "HgN/A
9:00 PM49 °FCool.17 mph78%29.80 "HgN/A
8:00 PM50 °FCool.21 mph73%29.80 "HgN/A
7:00 PM51 °FCool.22 mph70%29.82 "HgN/A
6:00 PM50 °FCool.26 mph71%29.86 "HgN/A
5:00 PM49 °FCool.17 mph76%29.88 "HgN/A
Weather by CustomWeather, © 2015

See weather overviewHow to use our weather pages